www.pogodaiklimat.ru

Погода и климат >> Архив погоды >> Иран >> Нехбандан


ПОГОДА в Нехбандане

  • Прогноз погоды в Нехбандане
  • Монитор погоды в Нехбандане

АРХИВ ПОГОДЫ в Нехбандане

Время (UTC), дата Ветер
(напр.,м/с)
 
Видим.   Явления Облачность Т
(С)
Тd
(С)
f
(%)
Тe
(С)
Тes
(С)
Комфортность P
(гПа)
Po
(гПа)
Тmin
(С)
Tmax
(С)
R
(мм)
R24
(мм)
S
(см)
00 13.08 С 4 12 км ясно +25.2 +0.4 20 +24 +24 комфорт 996.3 873.8
03 13.08 СЗ 7 20 км ясно +25.5 +2.0 22 +24 +25 комфорт 999.0 875.4 +24.5
06 13.08 СВ 6 20 км ясно +30.6 +1.2 15 +28 +34 жарко 999.4 876.0
09 13.08 СВ 6 20 км ясно +34.9 -1.4 10 +31 +39 жарко 997.7 874.8
12 13.08 СВ 6 20 км 1/0
[Ci fib]
+36.4 -1.6 9 +33 +35 жарко 996.4 873.7
15 13.08 С 12 12 км ясно +30.4 -2.6 12 +27 +27 жарко 998.6 874.6 +36.6
18 13.08 СВ 4 15 км ясно +25.8 -1.8 16 +24 +24 комфорт 1000.5 876.3
21 13.08 СВ 4 15 км 3/0
[Ci fib]
+23.8 -1.2 19 +22 +22 комфорт 999.6 876.0
00 14.08 СВ 4 15 км ясно +22.0 +0.9 25 +22 +22 комфорт 999.6 876.0
03 14.08 Ю 3 20 км ясно +23.4 +1.2 23 +22 +25 комфорт 1002.1 877.3 +20.8
06 14.08 СЗ 4 20 км ясно +29.6 -1.7 13 +27 +37 жарко 1002.8 878.2
09 14.08 ЮЗ 2 20 км ясно +33.8 -6.7 7 +30 +48 жарко 1001.0 876.9
12 14.08 С 7 20 км ясно +36.1 -5.3 7 +32 +34 жарко 999.3 875.5
15 14.08 С 10 15 км ясно +30.1 -5.7 9 +26 +26 жарко 1001.5 876.6 +36.2
18 14.08 СЗ 3 15 км ясно +26.0 -4.1 13 +23 +23 комфорт 1003.0 878.3
21 14.08 штиль 0 15 км ясно +21.6 -3.4 18 +21 +21 комфорт 1002.3 877.7
00 15.08 штиль 0 15 км ясно +20.5 -6.2 16 +20 +20 1002.1 877.7
03 15.08 СВ 2 20 км ясно +24.0 -5.7 13 +22 +24 комфорт 1004.4 879.2 +19.4
06 15.08 штиль 0 20 км ясно +30.6 -12.9 5 +26 +47 жарко 1004.2 879.5
09 15.08 Ю 3 20 км ясно +34.6 -17.7 3 +30 +45 жарко 1002.8 878.1
12 15.08 штиль 0 20 км ясно +37.4 -30.8 1 +32 +41 жарко 1000.3 876.2
15 15.08 ЮЗ 2 20 км ясно +31.8 -12.6 5 +27 +27 жарко 1000.2 875.8 +37.5
18 15.08 штиль 0 15 км ясно +27.2 -8.0 9 +24 +24 комфорт 1001.4 877.3
21 15.08 штиль 0 15 км ясно +23.0 -7.0 13 +21 +21 комфорт 1001.7 877.5
03 16.08 штиль 0 20 км ясно +23.1 -7.3 13 +21 +24 комфорт 1002.6 877.8 +19.3
06 16.08 штиль 0 20 км ясно +30.6 -12.8 5 +26 +47 жарко 1002.3 878.0
09 16.08 СВ 6 20 км ясно +34.5 -19.8 2 +29 +37 жарко 1000.8 876.6
12 16.08 СВ 4 20 км ясно +36.0 -16.8 3 +31 +35 жарко 999.5 875.3
15 16.08 С 9 20 км ясно +30.3 -15.2 4 +26 +26 жарко 999.4 874.6 +36.7
18 16.08 С 8 15 км ясно +25.7 -11.6 8 +23 +23 комфорт 1000.2 875.9
21 16.08 СВ 4 15 км ясно +22.9 -11.0 9 +20 +20 1000.3 876.2
00 17.08 штиль 0 15 км ясно +20.5 -13.7 9 +19 +19 999.5 875.3
03 17.08 Ю 2 20 км ясно +24.0 -16.2 6 +21 +23 комфорт 1000.3 875.6 +20.5
06 17.08 СЗ 3 20 км ясно +30.8 -33.1 1 +26 +39 жарко 1000.2 875.8
09 17.08 СВ 6 20 км ясно +34.2 -30.6 1 +29 +36 жарко 999.3 875.2
12 17.08 СВ 4 20 км ясно +36.0 -31.7 1 +31 +35 жарко 998.6 874.4
15 17.08 СВ 2 15 км ясно +31.1 -34.1 1 +26 +26 жарко 999.3 874.8 +36.3
18 17.08 СВ 2 15 км ясно +25.0 -15.9 6 +22 +22 комфорт 1000.2 875.8
21 17.08 штиль 0 15 км ясно +22.7 -9.7 11 +21 +21 комфорт 1000.1 876.0
00 18.08 штиль 0 15 км ясно +18.4 -8.8 15 +18 +18 1000.6 875.9
03 18.08 штиль 0 20 км ясно +22.9 -9.7 11 +21 +24 комфорт 1002.3 877.3 +17.0
06 18.08 С 4 20 км ясно +33.3 -32.7 1 +28 +39 жарко 1002.2 877.9
09 18.08 В 2 20 км ясно +36.9 -27.8 1 +32 +50 жарко 1001.2 877.3
12 18.08 ЮВ 3 20 км ясно +37.9 -27.4 1 +33 +38 жарко 1001.0 876.5
15 18.08 СВ 2 20 км ясно +32.3 -18.3 3 +27 +27 жарко 1001.5 876.8 +39.6
18 18.08 С 2 15 км ясно +27.8 -12.0 7 +24 +24 комфорт 1001.3 877.8
21 18.08 штиль 0 15 км ясно +25.2 -8.1 10 +22 +22 комфорт 1001.4 878.1
00 19.08 штиль 0 15 км ясно +21.4 -7.4 14 +20 +20 1001.8 877.9
03 19.08 штиль 0 20 км ясно +21.9 -6.5 14 +20 +24 1004.5 879.3 +18.6
06 19.08 штиль 0 20 км ясно +30.9 -11.4 6 +27 +47 жарко 1004.1 879.8
09 19.08 СВ 3 20 км ясно +34.0 -26.1 1 +29 +44 жарко 1003.1 878.9
12 19.08 С 3 20 км ясно +37.2 -28.4 1 +32 +37 жарко 1001.5 877.4
15 19.08 СВ 3 15 км ясно +31.0 -17.8 3 +26 +26 жарко 1002.8 877.5 +37.4
18 19.08 СЗ 5 15 км ясно +27.3 -11.1 7 +24 +24 комфорт 1003.9 879.5
21 19.08 СЗ 7 15 км ясно +24.7 -6.8 12 +22 +22 комфорт 1002.6 878.5

 

Местоположение метеостанции Нехбандан (Иран): широта 31.53 долгота 60.03 высота над уровнем моря 1211 м.

В архиве по умолчанию представлена погода в Нехбандане за последнюю неделю. Архивные данные за месяц целиком и за предыдущие месяцы, начиная с января 2011 года, Вы можете получить, выбрав интересующий диапазон дат из раскрывающегося списка и нажав кнопку "Ввод!".


*Определитесь, кто Вы:
робот инопланетянин человек

Внимание! Время в таблицах - всемирное. Для получения местного времени необходимо прибавить поправку, которая равна 3.5 ч.

Смотрите также архив погоды в соседних городах и на ближайших метеорологических станциях:

Погода в Заболе (Иран) (148 км)
Погода в Бирдженде (Иран) (168 км)
Погода в Захедане (Иран) (243 км)
Погода в Баме (Иран) (312 км)
Погода в Кермане (Иран) (325 км)
Погода в Фердоусе (Иран) (327 км)
Погода в Герате (Афганистан) (362 км)
Погода в Табасе (Иран) (371 км)
Погода в Нок-Кунди (Пакистан) (399 км)
Погода в Лашкаргахе (Афганистан) (411 км)

Пояснения к столбцам:

Ветер - указаны скорость ветра в м/с - средняя за 10 мин, порывы в срок и между сроками (в фигурных скобках) и направление, откуда дует ветер: С - северный, СВ - северо-восточный, В - восточный, ЮВ - юго-восточный, Ю - южный, ЮЗ - юго-западный, З - западный, СЗ - северо-западный.
Видимость - горизонтальная дальность видимости в метрах или километрах. При видимости от 1 до 10 км при отсутствии осадков обычно наблюдается дымка, при ухудшении видимости до 1 км и менее - туман. В сухую погоду видимость может ухудшаться дымом, пылью или мглою.
Явления - указаны атмосферные явления, наблюдавшиеся в срок или в последний час перед сроком; фигурными скобками обозначены явления, наблюдавшиеся между сроками (за 1-3 часа до срока); квадратными скобками обозначены град или гололедные отложения с указанием их диаметра в мм.
Облачность - указаны через наклонную черту общая и нижняя облачность в баллах и высота нижней границы облаков в метрах; квадратными скобками обозначены формы облаков: Ci - перистые, Cs - перисто-слоистые, Cc - перисто-кучевые, Ac - высококучевые, As - высокослоистые, Sc - слоисто-кучевые, Ns - слоисто-дождевые, Cu - кучевые, Cb - кучево-дождевые. Подробнее классификацию облаков см. в Атласе облаков (PDF).
T - Температура воздуха - температура, измеренная на высоте 2 м над землей.
Td - Температура точки росы - температура, при понижении до которой содержащийся в воздухе водяной пар достигнет насыщения.
f - Относительная влажность воздуха - влажноcть воздуха, измеренная на высоте 2 м над землей.
Te - Эффективная температура - температура, которую ощущает одетый по сезону человек в тени. Характеристика душности погоды. При расчете учитывается влияние влажности воздуха и скорости ветра на теплоощущения человека.
Tes - Эффективная температура на солнце - температура, которую ощущает человек, с поправкой на солнечный нагрев. Характеристика знойности погоды. Зависит от высоты солнца над горизонтом, облачности и скорости ветра. Ночью, в пасмурную погоду, а также при ветре 12 м/с и более поправка равна нулю.
P - Атмосферное давление - приведенное к уровню моря атмосферное давление.
Po - Атмосферное давление - измеренное на уровне метеостанции атмосферное давление.
Tmin - Минимальная температура - минимум температуры воздуха на высоте 2 м над землей.
Tmax - Максимальная температура - максимум температуры воздуха на высоте 2 м над землей.
R - Количество осадков - Количество выпавших осадков за период времени, мм. При наведении курсора мыши на число - период времени, за который выпало указанное количество осадков.
R24 - Количество осадков - Количество выпавших осадков за 24 часа, мм.
S - Снежный покров - Высота снежного покрова, см. При наведении курсора мыши на число - состояние снежного покрова и степень покрытия местности в баллах.